Regional Weather Roundup
Issued by NWS

Home | Current Version | Previous Version | Graphics & Text | Print | Product List | Glossary Off
Versions: 1 2 3 4 5 6 7 8 9 10 11 12 13 14 15 16 17 18 19 20 21 22 23 24 25 26 27 28 29 30 31 32 33 34 35 36 37 38 39 40 41 42 43 44 45 46 47 48 49 50

000
ASUS43 KLSX 020659
RWRMO

WEATHER SUMMARY FOR MISSOURI
NATIONAL WEATHER SERVICE SPRINGFIELD MO
100 AM CST MON MAR 02 2015

NOTE: "FAIR" INDICATES FEW OR NO CLOUDS BELOW 12,000 FEET WITH NO
       SIGNIFICANT WEATHER AND/OR OBSTRUCTIONS TO VISIBILITY.
       CURRENT SKY AND/OR WEATHER CONDITIONS ARE NOT AVAILABLE FOR
       CHILLICOTHE AND FARMINGTON.

MOZ001>031-035>038-043-044-053-054-020800-
...NORTHERN AND WESTERN MISSOURI...

CITY           SKY/WX    TMP DP  RH WIND       PRES   REMARKS
KANSAS CTY INT CLEAR     25  19  78 SW5       30.50R WCI  19
KANSAS C DTWN  CLEAR     25  21  85 CALM      30.52R
LEE`S SUMMIT   PTCLDY    26  20  77 CALM      30.50S
ST JOSEPH      PTCLDY    24  22  91 CALM      30.52R
CHILLICOTHE      N/A     24  19  81 CALM      30.52R
KIRKSVILLE     CLOUDY    21  18  88 CALM      30.49S

$$
MOZ066>068-077>081-088>096-101>105-020800-
...SOUTHWEST MISSOURI...

CITY           SKY/WX    TMP DP  RH WIND       PRES   REMARKS
SPRINGFIELD    PTCLDY    24  19  81 E5        30.45S WCI  18
JOPLIN         PTCLDY    23  19  85 NE3       30.49S

$$
MOZ032>034-039>042-045>050-055>058-069>072-020800-
...CENTRAL MISSOURI...

CITY           SKY/WX    TMP DP  RH WIND       PRES   REMARKS
COLUMBIA       PTCLDY    20  18  92 NW5       30.50R WCI  13
JEFFERSON CITY PTCLDY    16  13  88 W5        30.53R WCI   9
ROLLA          HAZE      13   8  81 N3        30.46R VSB 1/2
SEDALIA        PTCLDY    18  15  88 CALM      30.51R FOG
OSAGE BEACH    PTCLDY    18  12  79 CALM      30.49R

$$
MOZ051-052-059>065-020800-
...EAST CENTRAL MISSOURI...

CITY           SKY/WX    TMP DP  RH WIND       PRES   REMARKS
ST LOUIS INTL  FAIR      20  15  81 CALM      30.51R
SPIRIT OF STL  CLEAR     13  10  88 CALM      30.52R FOG
ST CHARLES     FOG       12  10  92 CALM      30.52R VSB 1/4

$$
MOZ072>076-082>087-097>100-106>115-020800-
...SOUTH CENTRAL AND SOUTHEAST MISSOURI...

CITY           SKY/WX    TMP DP  RH WIND       PRES   REMARKS
CAPE GIRARDEAU PTCLDY    30  25  81 N8        30.48R WCI  22
FARMINGTON     CLEAR     25  19  80 N6        30.50R WCI  18
POPLAR BLUFF   CLEAR     32  24  72 N10       30.47R WCI  24
WEST PLAINS    PTCLDY    28  21  75 NE8       30.45S WCI  20

$$


USA.gov is the U.S. government's official web portal to all federal, state and local government web resources and services.